Weather History for Columbus, GA

Change the Weather History Date:

Tuesday, January 21, 2014

  Actual Average Record
Temperature  
Mean Temperature 42 °F 47 °F  
Max Temperature 55 °F 58 °F 78 °F (1999)
Min Temperature 28 °F 37 °F -2 °F (1985)
Degree Days  
Heating Degree Days 23 18  
Month to date heating degree days 479 378  
Since 1 July heating degree days 1255 1207  
Cooling Degree Days 0 0  
Month to date cooling degree days 0 0  
Year to date cooling degree days 0 0  
Moisture  
Dew Point 27 °F    
Average Humidity 61    
Maximum Humidity 92    
Minimum Humidity 30    
Precipitation  
Precipitation 0.00 in 0.13 in 1.68 in (1973)
Month to date precipitation 2.56 2.52  
Year to date precipitation 2.56 2.52  
Snow  
Snow 0.00 in 0.00 in 0.00 in (2002)
Month to date snowfall 0.0 0.2  
Since 1 July snowfall 0.0 0.3  
Snow Depth 0.00 in    
Sea Level Pressure  
Sea Level Pressure 29.90 in    
Wind  
Wind Speed 10 mph (NNW)    
Max Wind Speed 29 mph    
Max Gust Speed 39 mph    
Visibility 10 miles    
Events      
T = Trace of Precipitation, MM = Missing Value Source: NWS Daily Summary

Daily Weather History Graph

Daily Weather History Graph

Search for Another Location

Airport:

Trip Planner

Search our weather history database for the weather conditions in past years. The results will help you decide how hot, cold, wet, or windy it might be!

Date:

Astronomy

Jan. 21, 2014 Rise Set
Actual Time 7:39 AM EST 6:02 PM EST
Civil Twilight 7:13 AM EST 6:28 PM EST
Nautical Twilight 6:43 AM EST 6:58 PM EST
Astronomical Twilight 6:14 AM EST 7:28 PM EST
Moon 11:13 PM EST (1/21) 10:28 AM EST (1/21)
Length of Visible Light 11h 15m
Length of Day
10h 22m
Waning Gibbous, 75% of the Moon is Illuminated
Jan 21
Waning Gibbous
Jan 24
Last Quarter
Jan 30
New
Feb 6
First Quarter
Feb 14
Full

Hourly Weather History & Observations

Time (EST) Temp. Windchill Dew Point Humidity Pressure Visibility Wind Dir Wind Speed Gust Speed Precip Events Conditions
12:51 AM 46.9 °F - 35.1 °F 63% 29.91 in 10.0 mi West 5.8 mph - N/A   Clear
1:51 AM 39.0 °F - 32.0 °F 76% 29.90 in 10.0 mi Calm Calm - N/A   Clear
2:51 AM 37.0 °F - 30.9 °F 79% 29.89 in 10.0 mi Calm Calm - N/A   Clear
3:51 AM 37.0 °F - 30.9 °F 79% 29.88 in 10.0 mi Calm Calm - N/A   Clear
4:51 AM 35.1 °F - 30.9 °F 85% 29.85 in 10.0 mi Calm Calm - N/A   Clear
5:51 AM 36.0 °F - 32.0 °F 86% 29.83 in 10.0 mi Calm Calm - N/A   Clear
6:40 AM 37.4 °F - 33.8 °F 87% 29.82 in 10.0 mi Calm Calm - N/A   Mostly Cloudy
6:48 AM 37.4 °F - 33.8 °F 87% 29.83 in 10.0 mi Calm Calm - N/A   Overcast
6:51 AM 37.9 °F - 34.0 °F 86% 29.83 in 10.0 mi Calm Calm - N/A   Overcast
7:16 AM 37.4 °F - 33.8 °F 87% 29.82 in 10.0 mi Calm Calm - N/A   Mostly Cloudy
7:51 AM 37.9 °F - 35.1 °F 89% 29.82 in 8.0 mi Calm Calm - N/A   Clear
8:51 AM 44.1 °F 40.8 °F 39.0 °F 82% 29.82 in 10.0 mi West 5.8 mph - N/A   Mostly Cloudy
9:51 AM 51.1 °F - 39.9 °F 66% 29.83 in 10.0 mi NW 8.1 mph - N/A   Clear
10:51 AM 53.1 °F - 30.9 °F 43% 29.85 in 10.0 mi NW 19.6 mph 29.9 mph N/A   Clear
11:51 AM 54.0 °F - 28.0 °F 37% 29.85 in 10.0 mi NW 19.6 mph 29.9 mph N/A   Clear
12:51 PM 54.0 °F - 26.1 °F 34% 29.83 in 10.0 mi NNW 16.1 mph 28.8 mph N/A   Scattered Clouds
1:51 PM 55.0 °F - 24.1 °F 30% 29.83 in 10.0 mi North 23.0 mph 36.8 mph N/A   Scattered Clouds
2:51 PM 51.1 °F - 24.1 °F 35% 29.85 in 10.0 mi North 17.3 mph 27.6 mph N/A   Scattered Clouds
3:51 PM 48.9 °F - 24.1 °F 38% 29.87 in 10.0 mi North 15.0 mph 25.3 mph N/A   Scattered Clouds
4:51 PM 46.0 °F 38.0 °F 23.0 °F 40% 29.92 in 10.0 mi NNW 21.9 mph 35.7 mph N/A   Partly Cloudy
5:51 PM 44.1 °F 36.5 °F 19.9 °F 38% 29.95 in 10.0 mi NNW 17.3 mph 29.9 mph N/A   Partly Cloudy
6:51 PM 39.0 °F 31.4 °F 19.9 °F 46% 30.00 in 10.0 mi NNW 12.7 mph 23.0 mph N/A   Clear
7:51 PM 35.1 °F 24.8 °F 19.0 °F 52% 30.03 in 10.0 mi NNW 17.3 mph - N/A   Clear
8:51 PM 33.1 °F 23.0 °F 18.0 °F 54% 30.04 in 10.0 mi NNW 15.0 mph 20.7 mph N/A   Clear
9:51 PM 30.9 °F 22.2 °F 16.0 °F 54% 30.06 in 10.0 mi NNW 10.4 mph 21.9 mph N/A   Clear
10:51 PM 30.0 °F 18.7 °F 12.9 °F 49% 30.06 in 10.0 mi NNW 16.1 mph 25.3 mph N/A   Clear
11:51 PM 28.0 °F 21.7 °F 12.0 °F 51% 30.07 in 10.0 mi North 5.8 mph - N/A   Clear